Location: �terpigny
(49.8910°N, 2.9249°E)
Time: 21:48:23
(UTC+00:00)

DIWATA 2B (PO-101) - Pass Details

Date: 27 June 2022
Orbit: 583 x 599 km, 98.0° (Epoch: 07 August)

Event Time Altitude Azimuth Distance (km) Brightness Sun altitude
Exits shadow 01:05:25 11° 144° (SE) 1,871 ? -15.0°
Maximum altitude 01:09:19 50° 70° (ENE) 769 ? -14.8°
Drops below altitude 10° 01:13:25 10° 355° (N) 1,953 ? -14.5°
Sets 01:15:39 0° 351° (N) 2,860 ? -14.4°
